Year,Month,Day,Hour,Minute,Value (Times are PST for temperature in C)
2016,02,29,00,00,6.90
2016,02,29,00,01,6.80
2016,02,29,00,02,6.80
2016,02,29,00,03,6.80
2016,02,29,00,04,6.80
2016,02,29,00,05,6.80
2016,02,29,00,06,6.80
2016,02,29,00,07,6.80
2016,02,29,00,08,6.80
2016,02,29,00,09,6.80
2016,02,29,00,10,6.80
2016,02,29,00,11,6.70
2016,02,29,00,12,6.70
2016,02,29,00,13,6.70
2016,02,29,00,14,6.70
2016,02,29,00,15,6.60
2016,02,29,00,16,6.60
2016,02,29,00,17,6.60
2016,02,29,00,18,6.50
2016,02,29,00,19,6.50
2016,02,29,00,20,6.40
2016,02,29,00,21,6.40
2016,02,29,00,22,6.40
2016,02,29,00,23,6.40
2016,02,29,00,24,6.40
2016,02,29,00,25,6.40
2016,02,29,00,26,6.40
2016,02,29,00,27,6.40
2016,02,29,00,28,6.40
2016,02,29,00,29,6.40
2016,02,29,00,30,6.40
2016,02,29,00,31,6.40
2016,02,29,00,32,6.30
2016,02,29,00,33,6.30
2016,02,29,00,34,6.30
2016,02,29,00,35,6.30
2016,02,29,00,36,6.30
2016,02,29,00,37,6.20
2016,02,29,00,38,6.20
2016,02,29,00,39,6.20
2016,02,29,00,40,6.20
2016,02,29,00,41,6.20
2016,02,29,00,42,6.10
2016,02,29,00,43,6.20
2016,02,29,00,44,6.10
2016,02,29,00,45,6.10
2016,02,29,00,46,6.10
2016,02,29,00,47,6.10
2016,02,29,00,48,6.10
2016,02,29,00,49,6.10
2016,02,29,00,50,6.10
2016,02,29,00,51,6.00
2016,02,29,00,52,6.00
2016,02,29,00,53,6.00
2016,02,29,00,54,5.90
2016,02,29,00,55,5.90
2016,02,29,00,56,5.90
2016,02,29,00,57,5.90
2016,02,29,00,58,5.90
2016,02,29,00,59,5.90
2016,02,29,01,00,5.90
2016,02,29,01,01,5.90
2016,02,29,01,02,5.90
2016,02,29,01,03,5.80
2016,02,29,01,04,5.80
2016,02,29,01,05,5.80
2016,02,29,01,06,5.80
2016,02,29,01,07,5.80
2016,02,29,01,08,5.80
2016,02,29,01,09,5.80
2016,02,29,01,10,5.80
2016,02,29,01,11,5.80
2016,02,29,01,12,5.80
2016,02,29,01,13,5.70
2016,02,29,01,14,5.70
2016,02,29,01,15,5.70
2016,02,29,01,16,5.70
2016,02,29,01,17,5.70
2016,02,29,01,18,5.70
2016,02,29,01,19,5.70
2016,02,29,01,20,5.70
2016,02,29,01,21,5.70
2016,02,29,01,22,5.70
2016,02,29,01,23,5.70
2016,02,29,01,24,5.60
2016,02,29,01,25,5.60
2016,02,29,01,26,5.60
2016,02,29,01,27,5.60
2016,02,29,01,28,5.60
2016,02,29,01,29,5.60
2016,02,29,01,30,5.60
2016,02,29,01,31,5.60
2016,02,29,01,32,5.70
2016,02,29,01,33,5.70
2016,02,29,01,34,5.70
2016,02,29,01,35,5.70
2016,02,29,01,36,5.70
2016,02,29,01,37,5.70
2016,02,29,01,38,5.70
2016,02,29,01,39,5.70
2016,02,29,01,40,5.70
2016,02,29,01,41,5.70
2016,02,29,01,42,5.70
2016,02,29,01,43,5.70
2016,02,29,01,44,5.70
2016,02,29,01,45,5.70
2016,02,29,01,46,5.70
2016,02,29,01,47,5.70
2016,02,29,01,48,5.70
2016,02,29,01,49,5.70
2016,02,29,01,50,5.70
2016,02,29,01,51,5.70
2016,02,29,01,52,5.70
2016,02,29,01,53,5.70
2016,02,29,01,54,5.70
2016,02,29,01,55,5.70
2016,02,29,01,56,5.70
2016,02,29,01,57,5.70
2016,02,29,01,58,5.70
2016,02,29,01,59,5.70
2016,02,29,02,00,5.70
2016,02,29,02,01,5.70
2016,02,29,02,02,5.70
2016,02,29,02,03,5.60
2016,02,29,02,04,5.60
2016,02,29,02,05,5.60
2016,02,29,02,06,5.60
2016,02,29,02,07,5.50
2016,02,29,02,08,5.50
2016,02,29,02,09,5.50
2016,02,29,02,10,5.40
2016,02,29,02,11,5.40
2016,02,29,02,12,5.40
2016,02,29,02,13,5.40
2016,02,29,02,14,5.40
2016,02,29,02,15,5.40
2016,02,29,02,16,5.30
2016,02,29,02,17,5.30
2016,02,29,02,18,5.30
2016,02,29,02,19,5.30
2016,02,29,02,20,5.30
2016,02,29,02,21,5.30
2016,02,29,02,22,5.30
2016,02,29,02,23,5.30
2016,02,29,02,24,5.30
2016,02,29,02,25,5.20
2016,02,29,02,26,5.20
2016,02,29,02,27,5.20
2016,02,29,02,28,5.20
2016,02,29,02,29,5.20
2016,02,29,02,30,5.20
2016,02,29,02,31,5.20
2016,02,29,02,32,5.20
2016,02,29,02,33,5.20
2016,02,29,02,34,5.10
2016,02,29,02,35,5.10
2016,02,29,02,36,5.10
2016,02,29,02,37,5.10
2016,02,29,02,38,5.10
2016,02,29,02,39,5.10
2016,02,29,02,40,5.00
2016,02,29,02,41,5.00
2016,02,29,02,42,5.00
2016,02,29,02,43,5.00
2016,02,29,02,44,5.00
2016,02,29,02,45,5.00
2016,02,29,02,46,4.90
2016,02,29,02,47,4.90
2016,02,29,02,48,4.90
2016,02,29,02,49,4.90
2016,02,29,02,50,4.90
2016,02,29,02,51,4.90
2016,02,29,02,52,4.90
2016,02,29,02,53,4.80
2016,02,29,02,54,4.80
2016,02,29,02,55,4.80
2016,02,29,02,56,4.80
2016,02,29,02,57,4.80
2016,02,29,02,58,4.80
2016,02,29,02,59,4.80
2016,02,29,03,00,4.80
2016,02,29,03,01,4.70
2016,02,29,03,02,4.70
2016,02,29,03,03,4.70
2016,02,29,03,04,4.70
2016,02,29,03,05,4.70
2016,02,29,03,06,4.70
2016,02,29,03,07,4.70
2016,02,29,03,08,4.70
2016,02,29,03,09,4.60
2016,02,29,03,10,4.60
2016,02,29,03,11,4.60
2016,02,29,03,12,4.60
2016,02,29,03,13,4.60
2016,02,29,03,14,4.60
2016,02,29,03,15,4.60
2016,02,29,03,16,4.50
2016,02,29,03,17,4.50
2016,02,29,03,18,4.50
2016,02,29,03,19,4.40
2016,02,29,03,20,4.40
2016,02,29,03,21,4.40
2016,02,29,03,22,4.40
2016,02,29,03,23,4.40
2016,02,29,03,24,4.40
2016,02,29,03,25,4.40
2016,02,29,03,26,4.40
2016,02,29,03,27,4.40
2016,02,29,03,28,4.40
2016,02,29,03,29,4.40
2016,02,29,03,30,4.40
2016,02,29,03,31,4.40
2016,02,29,03,32,4.40
2016,02,29,03,33,4.30
2016,02,29,03,34,4.30
2016,02,29,03,35,4.30
2016,02,29,03,36,4.30
2016,02,29,03,37,4.30
2016,02,29,03,38,4.30
2016,02,29,03,39,4.30
2016,02,29,03,40,4.30
2016,02,29,03,41,4.30
2016,02,29,03,42,4.30
2016,02,29,03,43,4.30
2016,02,29,03,44,4.30
2016,02,29,03,45,4.30
2016,02,29,03,46,4.30
2016,02,29,03,47,4.30
2016,02,29,03,48,4.30
2016,02,29,03,49,4.30
2016,02,29,03,50,4.30
2016,02,29,03,51,4.30
2016,02,29,03,52,4.30
2016,02,29,03,53,4.30
2016,02,29,03,54,4.30
2016,02,29,03,55,4.30
2016,02,29,03,56,4.30
2016,02,29,03,57,4.30
2016,02,29,03,58,4.30
2016,02,29,03,59,4.30
2016,02,29,04,00,4.30
2016,02,29,04,01,4.30
2016,02,29,04,02,4.30
2016,02,29,04,03,4.30
2016,02,29,04,04,4.30
2016,02,29,04,05,4.30
2016,02,29,04,06,4.30
2016,02,29,04,07,4.20
2016,02,29,04,08,4.20
2016,02,29,04,09,4.20
2016,02,29,04,10,4.20
2016,02,29,04,11,4.10
2016,02,29,04,12,4.10
2016,02,29,04,13,4.10
2016,02,29,04,14,4.10
2016,02,29,04,15,4.00
2016,02,29,04,16,4.00
2016,02,29,04,17,4.00
2016,02,29,04,18,3.90
2016,02,29,04,19,3.90
2016,02,29,04,20,3.90
2016,02,29,04,21,3.80
2016,02,29,04,22,3.80
2016,02,29,04,23,3.80
2016,02,29,04,24,3.80
2016,02,29,04,25,3.80
2016,02,29,04,26,3.80
2016,02,29,04,27,3.70
2016,02,29,04,28,3.70
2016,02,29,04,29,3.70
2016,02,29,04,30,3.70
2016,02,29,04,31,3.70
2016,02,29,04,32,3.70
2016,02,29,04,33,3.70
2016,02,29,04,34,3.70
2016,02,29,04,35,3.70
2016,02,29,04,36,3.70
2016,02,29,04,37,3.70
2016,02,29,04,38,3.70
2016,02,29,04,39,3.70
2016,02,29,04,40,3.70
2016,02,29,04,41,3.70
2016,02,29,04,42,3.70
2016,02,29,04,43,3.70
2016,02,29,04,44,3.70
2016,02,29,04,45,3.70
2016,02,29,04,46,3.70
2016,02,29,04,47,3.70
2016,02,29,04,48,3.70
2016,02,29,04,49,3.70
2016,02,29,04,50,3.70
2016,02,29,04,51,3.70
2016,02,29,04,52,3.70
2016,02,29,04,53,3.70
2016,02,29,04,54,3.70
2016,02,29,04,55,3.70
2016,02,29,04,56,3.70
2016,02,29,04,57,3.70
2016,02,29,04,58,3.70
2016,02,29,04,59,3.70
2016,02,29,05,00,3.70
2016,02,29,05,01,3.70
2016,02,29,05,02,3.70
2016,02,29,05,03,3.70
2016,02,29,05,04,3.70
2016,02,29,05,05,3.70
2016,02,29,05,06,3.70
2016,02,29,05,07,3.80
2016,02,29,05,08,3.70
2016,02,29,05,09,3.70
2016,02,29,05,10,3.70
2016,02,29,05,11,3.70
2016,02,29,05,12,3.60
2016,02,29,05,13,3.60
2016,02,29,05,14,3.60
2016,02,29,05,15,3.50
2016,02,29,05,16,3.50
2016,02,29,05,17,3.50
2016,02,29,05,18,3.40
2016,02,29,05,19,3.50
2016,02,29,05,20,3.50
2016,02,29,05,21,3.50
2016,02,29,05,22,3.60
2016,02,29,05,23,3.60
2016,02,29,05,24,3.60
2016,02,29,05,25,3.60
2016,02,29,05,26,3.60
2016,02,29,05,27,3.60
2016,02,29,05,28,3.60
2016,02,29,05,29,3.60
2016,02,29,05,30,3.60
2016,02,29,05,31,3.60
2016,02,29,05,32,3.60
2016,02,29,05,33,3.60
2016,02,29,05,34,3.60
2016,02,29,05,35,3.50
2016,02,29,05,36,3.50
2016,02,29,05,37,3.50
2016,02,29,05,38,3.50
2016,02,29,05,39,3.50
2016,02,29,05,40,3.50
2016,02,29,05,41,3.60
2016,02,29,05,42,3.60
2016,02,29,05,43,3.60
2016,02,29,05,44,3.60
2016,02,29,05,45,3.60
2016,02,29,05,46,3.70
2016,02,29,05,47,3.70
2016,02,29,05,48,3.70
2016,02,29,05,49,3.70
2016,02,29,05,50,3.70
2016,02,29,05,51,3.70
2016,02,29,05,52,3.70
2016,02,29,05,53,3.80
2016,02,29,05,54,3.80
2016,02,29,05,55,3.80
2016,02,29,05,56,3.80
2016,02,29,05,57,3.80
2016,02,29,05,58,3.80
2016,02,29,05,59,3.80
2016,02,29,06,00,3.80
2016,02,29,06,01,3.80
2016,02,29,06,02,3.80
2016,02,29,06,03,3.80
2016,02,29,06,04,3.80
2016,02,29,06,05,3.90
2016,02,29,06,06,3.90
2016,02,29,06,07,3.90
2016,02,29,06,08,3.90
2016,02,29,06,09,3.90
2016,02,29,06,10,3.90
2016,02,29,06,11,3.90
2016,02,29,06,12,3.90
2016,02,29,06,13,4.00
2016,02,29,06,14,4.00
2016,02,29,06,15,4.00
2016,02,29,06,16,3.90
2016,02,29,06,17,3.90
2016,02,29,06,18,3.80
2016,02,29,06,19,3.70
2016,02,29,06,20,3.70
2016,02,29,06,21,3.60
2016,02,29,06,22,3.50
2016,02,29,06,23,3.40
2016,02,29,06,24,3.40
2016,02,29,06,25,3.30
2016,02,29,06,26,3.30
2016,02,29,06,27,3.30
2016,02,29,06,28,3.30
2016,02,29,06,29,3.30
2016,02,29,06,30,3.30
2016,02,29,06,31,3.30
2016,02,29,06,32,3.30
2016,02,29,06,33,3.30
2016,02,29,06,34,3.30
2016,02,29,06,35,3.30
2016,02,29,06,36,3.30
2016,02,29,06,37,3.30
2016,02,29,06,38,3.20
2016,02,29,06,39,3.20
2016,02,29,06,40,3.20
2016,02,29,06,41,3.20
2016,02,29,06,42,3.20
2016,02,29,06,43,3.20
2016,02,29,06,44,3.20
2016,02,29,06,45,3.20
2016,02,29,06,46,3.20
2016,02,29,06,47,3.20
2016,02,29,06,48,3.10
2016,02,29,06,49,3.10
2016,02,29,06,50,3.10
2016,02,29,06,51,3.10
2016,02,29,06,52,3.10
2016,02,29,06,53,3.10
2016,02,29,06,54,3.10
2016,02,29,06,55,3.10
2016,02,29,06,56,3.10
2016,02,29,06,57,3.10
2016,02,29,06,58,3.00
2016,02,29,06,59,3.00
2016,02,29,07,00,3.00
2016,02,29,07,01,3.00
2016,02,29,07,02,3.00
2016,02,29,07,03,3.00
2016,02,29,07,04,2.90
2016,02,29,07,05,2.90
2016,02,29,07,06,2.90
2016,02,29,07,07,2.90
2016,02,29,07,08,2.80
2016,02,29,07,09,2.80
2016,02,29,07,10,2.80
2016,02,29,07,11,2.80
2016,02,29,07,12,2.80
2016,02,29,07,13,2.80
2016,02,29,07,14,2.80
2016,02,29,07,15,2.80
2016,02,29,07,16,2.80
2016,02,29,07,17,2.80
2016,02,29,07,18,2.80
2016,02,29,07,19,2.80
2016,02,29,07,20,2.80
2016,02,29,07,21,2.80
2016,02,29,07,22,2.80
2016,02,29,07,23,2.80
2016,02,29,07,24,2.80
2016,02,29,07,25,2.80
2016,02,29,07,26,2.80
2016,02,29,07,27,2.90
2016,02,29,07,28,2.90
2016,02,29,07,29,2.90
2016,02,29,07,30,2.90
2016,02,29,07,31,2.90
2016,02,29,07,32,2.90
2016,02,29,07,33,2.80
2016,02,29,07,34,2.80
2016,02,29,07,35,2.80
2016,02,29,07,36,2.80
2016,02,29,07,37,2.80
2016,02,29,07,38,2.80
2016,02,29,07,39,2.80
2016,02,29,07,40,2.80
2016,02,29,07,41,2.80
2016,02,29,07,42,2.80
2016,02,29,07,43,2.80
2016,02,29,07,44,2.80
2016,02,29,07,45,2.80
2016,02,29,07,46,2.80
2016,02,29,07,47,2.80
2016,02,29,07,48,2.80
2016,02,29,07,49,2.80
2016,02,29,07,50,2.80
2016,02,29,07,51,2.80
2016,02,29,07,52,2.80
2016,02,29,07,53,2.80
2016,02,29,07,54,2.80
2016,02,29,07,55,2.80
2016,02,29,07,56,2.80
2016,02,29,07,57,2.80
2016,02,29,07,58,2.80
2016,02,29,07,59,2.90
2016,02,29,08,00,2.90
2016,02,29,08,01,2.90
2016,02,29,08,02,2.90
2016,02,29,08,03,2.90
2016,02,29,08,04,2.90
2016,02,29,08,05,2.90
2016,02,29,08,06,2.90
2016,02,29,08,07,2.90
2016,02,29,08,08,2.90
2016,02,29,08,09,3.00
2016,02,29,08,10,3.00
2016,02,29,08,11,3.10
2016,02,29,08,12,3.10
2016,02,29,08,13,3.10
2016,02,29,08,14,3.20
2016,02,29,08,15,3.20
2016,02,29,08,16,3.30
2016,02,29,08,17,3.40
2016,02,29,08,18,3.50
2016,02,29,08,19,3.60
2016,02,29,08,20,3.60
2016,02,29,08,21,3.60
2016,02,29,08,22,3.60
2016,02,29,08,23,3.60
2016,02,29,08,24,3.70
2016,02,29,08,25,3.70
2016,02,29,08,26,3.70
2016,02,29,08,27,3.70
2016,02,29,08,28,3.70
2016,02,29,08,29,3.60
2016,02,29,08,30,3.60
2016,02,29,08,31,3.60
2016,02,29,08,32,3.70
2016,02,29,08,33,3.70
2016,02,29,08,34,3.70
2016,02,29,08,35,3.80
2016,02,29,08,36,3.80
2016,02,29,08,37,3.90
2016,02,29,08,38,4.00
2016,02,29,08,39,4.10
2016,02,29,08,40,4.20
2016,02,29,08,41,4.30
2016,02,29,08,42,4.30
2016,02,29,08,43,4.40
2016,02,29,08,44,4.40
2016,02,29,08,45,4.50
2016,02,29,08,46,4.50
2016,02,29,08,47,4.60
2016,02,29,08,48,4.70
2016,02,29,08,49,4.80
2016,02,29,08,50,4.90
2016,02,29,08,51,4.90
2016,02,29,08,52,4.90
2016,02,29,08,53,4.90
2016,02,29,08,54,4.90
2016,02,29,08,55,5.00
2016,02,29,08,56,5.00
2016,02,29,08,57,5.10
2016,02,29,08,58,5.10
2016,02,29,08,59,5.10
2016,02,29,09,00,5.20
2016,02,29,09,01,5.20
2016,02,29,09,02,5.30
2016,02,29,09,03,5.30
2016,02,29,09,04,5.50
2016,02,29,09,05,5.60
2016,02,29,09,06,5.70
2016,02,29,09,07,5.80
2016,02,29,09,08,6.00
2016,02,29,09,09,6.10
2016,02,29,09,10,6.20
2016,02,29,09,11,6.30
2016,02,29,09,12,6.40
2016,02,29,09,13,6.50
2016,02,29,09,14,6.60
2016,02,29,09,15,6.60
2016,02,29,09,16,6.70
2016,02,29,09,17,6.80
2016,02,29,09,18,6.80
2016,02,29,09,19,6.90
2016,02,29,09,20,7.00
2016,02,29,09,21,7.00
2016,02,29,09,22,7.00
2016,02,29,09,23,7.10
2016,02,29,09,24,7.10
2016,02,29,09,25,7.10
2016,02,29,09,26,7.20
2016,02,29,09,27,7.20
2016,02,29,09,28,7.20
2016,02,29,09,29,7.30
2016,02,29,09,30,7.40
2016,02,29,09,31,7.40
2016,02,29,09,32,7.50
2016,02,29,09,33,7.60
2016,02,29,09,34,7.70
2016,02,29,09,35,7.70
2016,02,29,09,36,7.80
2016,02,29,09,37,7.80
2016,02,29,09,38,7.80
2016,02,29,09,39,7.80
2016,02,29,09,40,7.80
2016,02,29,09,41,7.80
2016,02,29,09,42,7.80
2016,02,29,09,43,7.80
2016,02,29,09,44,7.80
2016,02,29,09,45,7.80
2016,02,29,09,46,7.80
2016,02,29,09,47,7.80
2016,02,29,09,48,7.80
2016,02,29,09,49,7.90
2016,02,29,09,50,8.00
2016,02,29,09,51,8.00
2016,02,29,09,52,8.10
2016,02,29,09,53,8.20
2016,02,29,09,54,8.30
2016,02,29,09,55,8.30
2016,02,29,09,56,8.30
2016,02,29,09,57,8.30
2016,02,29,09,58,8.30
2016,02,29,09,59,8.30
2016,02,29,10,00,8.30
2016,02,29,10,01,8.30
2016,02,29,10,02,8.40
2016,02,29,10,03,8.40
2016,02,29,10,04,8.40
2016,02,29,10,05,8.40
2016,02,29,10,06,8.50
2016,02,29,10,07,8.60
2016,02,29,10,08,8.60
2016,02,29,10,09,8.70
2016,02,29,10,10,8.70
2016,02,29,10,11,8.70
2016,02,29,10,12,8.70
2016,02,29,10,13,8.70
2016,02,29,10,14,8.70
2016,02,29,10,15,8.80
2016,02,29,10,16,8.80
2016,02,29,10,17,8.70
2016,02,29,10,18,8.70
2016,02,29,10,19,8.70
2016,02,29,10,20,8.60
2016,02,29,10,21,8.60
2016,02,29,10,22,8.60
2016,02,29,10,23,8.70
2016,02,29,10,24,8.70
2016,02,29,10,25,8.80
2016,02,29,10,26,8.80
2016,02,29,10,27,8.90
2016,02,29,10,28,9.00
2016,02,29,10,29,9.00
2016,02,29,10,30,9.10
2016,02,29,10,31,9.10
2016,02,29,10,32,9.10
2016,02,29,10,33,9.20
2016,02,29,10,34,9.20
2016,02,29,10,35,9.20
2016,02,29,10,36,9.30
2016,02,29,10,37,9.30
2016,02,29,10,38,9.30
2016,02,29,10,39,9.30
2016,02,29,10,40,9.30
2016,02,29,10,41,9.30
2016,02,29,10,42,9.40
2016,02,29,10,43,9.40
2016,02,29,10,44,9.40
2016,02,29,10,45,9.50
2016,02,29,10,46,9.60
2016,02,29,10,47,9.50
2016,02,29,10,48,9.50
2016,02,29,10,49,9.40
2016,02,29,10,50,9.40
2016,02,29,10,51,9.30
2016,02,29,10,52,9.40
2016,02,29,10,53,9.50
2016,02,29,10,54,9.60
2016,02,29,10,55,9.70
2016,02,29,10,56,9.70
2016,02,29,10,57,9.70
2016,02,29,10,58,9.70
2016,02,29,10,59,9.70
2016,02,29,11,00,9.60
2016,02,29,11,01,9.70
2016,02,29,11,02,9.70
2016,02,29,11,03,9.70
2016,02,29,11,04,9.80
2016,02,29,11,05,9.80
2016,02,29,11,06,9.80
2016,02,29,11,07,9.70
2016,02,29,11,08,9.80
2016,02,29,11,09,9.80
2016,02,29,11,10,9.80
2016,02,29,11,11,9.80
2016,02,29,11,12,9.70
2016,02,29,11,13,9.70
2016,02,29,11,14,9.70
2016,02,29,11,15,9.70
2016,02,29,11,16,9.60
2016,02,29,11,17,9.60
2016,02,29,11,18,9.70
2016,02,29,11,19,9.70
2016,02,29,11,20,9.80
2016,02,29,11,21,9.80
2016,02,29,11,22,9.90
2016,02,29,11,23,10.00
2016,02,29,11,24,10.00
2016,02,29,11,25,10.10
2016,02,29,11,26,10.10
2016,02,29,11,27,10.10
2016,02,29,11,28,10.10
2016,02,29,11,29,10.00
2016,02,29,11,30,10.10
2016,02,29,11,31,10.00
2016,02,29,11,32,10.00
2016,02,29,11,33,10.00
2016,02,29,11,34,10.00
2016,02,29,11,35,10.00
2016,02,29,11,36,10.00
2016,02,29,11,37,10.00
2016,02,29,11,38,10.00
2016,02,29,11,39,9.90
2016,02,29,11,40,9.90
2016,02,29,11,41,9.90
2016,02,29,11,42,9.90
2016,02,29,11,43,9.90
2016,02,29,11,44,9.90
2016,02,29,11,45,10.00
2016,02,29,11,46,10.00
2016,02,29,11,47,10.10
2016,02,29,11,48,10.10
2016,02,29,11,49,10.10
2016,02,29,11,50,10.20
2016,02,29,11,51,10.20
2016,02,29,11,52,10.20
2016,02,29,11,53,10.20
2016,02,29,11,54,10.20
2016,02,29,11,55,10.20
2016,02,29,11,56,10.10
2016,02,29,11,57,10.00
2016,02,29,11,58,10.00
2016,02,29,11,59,9.90
2016,02,29,12,00,9.90
2016,02,29,12,01,9.80
2016,02,29,12,02,9.80
2016,02,29,12,03,9.80
2016,02,29,12,04,9.80
2016,02,29,12,05,9.70
2016,02,29,12,06,9.70
2016,02,29,12,07,9.70
2016,02,29,12,08,9.80
2016,02,29,12,09,9.80
2016,02,29,12,10,9.80
2016,02,29,12,11,9.90
2016,02,29,12,12,9.90
2016,02,29,12,13,9.90
2016,02,29,12,14,9.90
2016,02,29,12,15,9.90
2016,02,29,12,16,9.90
2016,02,29,12,17,9.90
2016,02,29,12,18,9.90
2016,02,29,12,19,9.90
2016,02,29,12,20,9.90
2016,02,29,12,21,9.90
2016,02,29,12,22,9.80
2016,02,29,12,23,9.80
2016,02,29,12,24,9.80
2016,02,29,12,25,9.80
2016,02,29,12,26,9.80
2016,02,29,12,27,9.90
2016,02,29,12,28,9.80
2016,02,29,12,29,9.80
2016,02,29,12,30,9.80
2016,02,29,12,31,9.80
2016,02,29,12,32,9.80
2016,02,29,12,33,9.80
2016,02,29,12,34,9.80
2016,02,29,12,35,9.80
2016,02,29,12,36,9.80
2016,02,29,12,37,9.80
2016,02,29,12,38,9.90
2016,02,29,12,39,9.90
2016,02,29,12,40,10.00
2016,02,29,12,41,10.00
2016,02,29,12,42,10.10
2016,02,29,12,43,10.10
2016,02,29,12,44,10.10
2016,02,29,12,45,10.00
2016,02,29,12,46,10.00
2016,02,29,12,47,10.00
2016,02,29,12,48,10.00
2016,02,29,12,49,9.90
2016,02,29,12,50,9.90
2016,02,29,12,51,9.90
2016,02,29,12,52,9.90
2016,02,29,12,53,9.90
2016,02,29,12,54,9.90
2016,02,29,12,55,9.90
2016,02,29,12,56,9.90
2016,02,29,12,57,9.90
2016,02,29,12,58,9.90
2016,02,29,12,59,9.90
2016,02,29,13,00,9.80
2016,02,29,13,01,9.80
2016,02,29,13,02,9.80
2016,02,29,13,03,9.90
2016,02,29,13,04,9.90
2016,02,29,13,05,9.90
2016,02,29,13,06,9.90
2016,02,29,13,07,9.90
2016,02,29,13,08,9.90
2016,02,29,13,09,10.00
2016,02,29,13,10,10.00
2016,02,29,13,11,10.10
2016,02,29,13,12,10.10
2016,02,29,13,13,10.10
2016,02,29,13,14,10.10
2016,02,29,13,15,10.10
2016,02,29,13,16,10.10
2016,02,29,13,17,10.10
2016,02,29,13,18,10.10
2016,02,29,13,19,10.10
2016,02,29,13,20,10.10
2016,02,29,13,21,10.00
2016,02,29,13,22,10.00
2016,02,29,13,23,9.90
2016,02,29,13,24,9.90
2016,02,29,13,25,9.90
2016,02,29,13,26,9.90
2016,02,29,13,27,9.90
2016,02,29,13,28,9.90
2016,02,29,13,29,9.80
2016,02,29,13,30,9.80
2016,02,29,13,31,9.80
2016,02,29,13,32,9.80
2016,02,29,13,33,9.80
2016,02,29,13,34,9.80
2016,02,29,13,35,9.80
2016,02,29,13,36,9.80
2016,02,29,13,37,9.80
2016,02,29,13,38,9.80
2016,02,29,13,39,9.90
2016,02,29,13,40,9.90
2016,02,29,13,41,9.90
2016,02,29,13,42,9.80
2016,02,29,13,43,9.80
2016,02,29,13,44,9.80
2016,02,29,13,45,9.80
2016,02,29,13,46,9.80
2016,02,29,13,47,9.70
2016,02,29,13,48,9.70
2016,02,29,13,49,9.70
2016,02,29,13,50,9.70
2016,02,29,13,51,9.60
2016,02,29,13,52,9.60
2016,02,29,13,53,9.60
2016,02,29,13,54,9.60
2016,02,29,13,55,9.60
2016,02,29,13,56,9.60
2016,02,29,13,57,9.60
2016,02,29,13,58,9.50
2016,02,29,13,59,9.60
2016,02,29,14,00,9.60
2016,02,29,14,01,9.60
2016,02,29,14,02,9.60
2016,02,29,14,03,9.60
2016,02,29,14,04,9.50
2016,02,29,14,05,9.50
2016,02,29,14,06,9.50
2016,02,29,14,07,9.50
2016,02,29,14,08,9.50
2016,02,29,14,09,9.50
2016,02,29,14,10,9.60
2016,02,29,14,11,9.60
2016,02,29,14,12,9.60
2016,02,29,14,13,9.60
2016,02,29,14,14,9.60
2016,02,29,14,15,9.60
2016,02,29,14,16,9.60
2016,02,29,14,17,9.60
2016,02,29,14,18,9.60
2016,02,29,14,19,9.60
2016,02,29,14,20,9.50
2016,02,29,14,21,9.50
2016,02,29,14,22,9.40
2016,02,29,14,23,9.40
2016,02,29,14,24,9.40
2016,02,29,14,25,9.40
2016,02,29,14,26,9.50
2016,02,29,14,27,9.50
2016,02,29,14,28,9.50
2016,02,29,14,29,9.50
2016,02,29,14,30,9.50
2016,02,29,14,31,9.50
2016,02,29,14,32,9.40
2016,02,29,14,33,9.40
2016,02,29,14,34,9.50
2016,02,29,14,35,9.50
2016,02,29,14,36,9.50
2016,02,29,14,37,9.50
2016,02,29,14,38,9.50
2016,02,29,14,39,9.50
2016,02,29,14,40,9.50
2016,02,29,14,41,9.50
2016,02,29,14,42,9.40
2016,02,29,14,43,9.50
2016,02,29,14,44,9.50
2016,02,29,14,45,9.50
2016,02,29,14,46,9.50
2016,02,29,14,47,9.60
2016,02,29,14,48,9.50
2016,02,29,14,49,9.50
2016,02,29,14,50,9.50
2016,02,29,14,51,9.50
2016,02,29,14,52,9.50
2016,02,29,14,53,9.40
2016,02,29,14,54,9.40
2016,02,29,14,55,9.40
2016,02,29,14,56,9.50
2016,02,29,14,57,9.50
2016,02,29,14,58,9.50
2016,02,29,14,59,9.50
2016,02,29,15,00,9.60
2016,02,29,15,01,9.60
2016,02,29,15,02,9.60
2016,02,29,15,03,9.60
2016,02,29,15,04,9.50
2016,02,29,15,05,9.50
2016,02,29,15,06,9.50
2016,02,29,15,07,9.50
2016,02,29,15,08,9.50
2016,02,29,15,09,9.40
2016,02,29,15,10,9.40
2016,02,29,15,11,9.40
2016,02,29,15,12,9.40
2016,02,29,15,13,9.40
2016,02,29,15,14,9.40
2016,02,29,15,15,9.30
2016,02,29,15,16,9.30
2016,02,29,15,17,9.30
2016,02,29,15,18,9.30
2016,02,29,15,19,9.30
2016,02,29,15,20,9.30
2016,02,29,15,21,9.40
2016,02,29,15,22,9.40
2016,02,29,15,23,9.40
2016,02,29,15,24,9.40
2016,02,29,15,25,9.40
2016,02,29,15,26,9.40
2016,02,29,15,27,9.30
2016,02,29,15,28,9.30
2016,02,29,15,29,9.30
2016,02,29,15,30,9.30
2016,02,29,15,31,9.30
2016,02,29,15,32,9.30
2016,02,29,15,33,9.30
2016,02,29,15,34,9.30
2016,02,29,15,35,9.30
2016,02,29,15,36,9.30
2016,02,29,15,37,9.30
2016,02,29,15,38,9.20
2016,02,29,15,39,9.20
2016,02,29,15,40,9.20
2016,02,29,15,41,9.20
2016,02,29,15,42,9.20
2016,02,29,15,43,9.20
2016,02,29,15,44,9.20
2016,02,29,15,45,9.10
2016,02,29,15,46,9.10
2016,02,29,15,47,9.10
2016,02,29,15,48,9.10
2016,02,29,15,49,9.10
2016,02,29,15,50,9.10
2016,02,29,15,51,9.10
2016,02,29,15,52,9.10
2016,02,29,15,53,9.10
2016,02,29,15,54,9.10
2016,02,29,15,55,9.10
2016,02,29,15,56,9.10
2016,02,29,15,57,9.10
2016,02,29,15,58,9.10
2016,02,29,15,59,9.10
2016,02,29,16,00,9.10
2016,02,29,16,01,9.10
2016,02,29,16,02,9.10
2016,02,29,16,03,9.10
2016,02,29,16,04,9.10
2016,02,29,16,05,9.10
2016,02,29,16,06,9.10
2016,02,29,16,07,9.10
2016,02,29,16,08,9.10
2016,02,29,16,09,9.00
2016,02,29,16,10,9.00
2016,02,29,16,11,9.10
2016,02,29,16,12,9.10
2016,02,29,16,13,9.10
2016,02,29,16,14,9.00
2016,02,29,16,15,9.00
2016,02,29,16,16,9.00
2016,02,29,16,17,9.00
2016,02,29,16,18,9.00
2016,02,29,16,19,9.00
2016,02,29,16,20,9.00
2016,02,29,16,21,9.00
2016,02,29,16,22,9.00
2016,02,29,16,23,9.00
2016,02,29,16,24,9.00
2016,02,29,16,25,9.00
2016,02,29,16,26,9.00
2016,02,29,16,27,9.00
2016,02,29,16,28,9.00
2016,02,29,16,29,8.90
2016,02,29,16,30,8.90
2016,02,29,16,31,8.90
2016,02,29,16,32,8.90
2016,02,29,16,33,8.90
2016,02,29,16,34,9.00
2016,02,29,16,35,9.00
2016,02,29,16,36,9.00
2016,02,29,16,37,9.00
2016,02,29,16,38,9.00
2016,02,29,16,39,9.00
2016,02,29,16,40,9.00
2016,02,29,16,41,8.90
2016,02,29,16,42,8.90
2016,02,29,16,43,8.90
2016,02,29,16,44,8.90
2016,02,29,16,45,8.90
2016,02,29,16,46,8.90
2016,02,29,16,47,8.90
2016,02,29,16,48,8.90
2016,02,29,16,49,8.90
2016,02,29,16,50,8.90
2016,02,29,16,51,8.90
2016,02,29,16,52,8.90
2016,02,29,16,53,8.90
2016,02,29,16,54,8.90
2016,02,29,16,55,8.90
2016,02,29,16,56,8.90
2016,02,29,16,57,8.90
2016,02,29,16,58,8.80
2016,02,29,16,59,8.80
2016,02,29,17,00,8.80
2016,02,29,17,01,8.80
2016,02,29,17,02,8.80
2016,02,29,17,03,8.80
2016,02,29,17,04,8.80
2016,02,29,17,05,8.80
2016,02,29,17,06,8.80
2016,02,29,17,07,8.80
2016,02,29,17,08,8.80
2016,02,29,17,09,8.70
2016,02,29,17,10,8.70
2016,02,29,17,11,8.70
2016,02,29,17,12,8.70
2016,02,29,17,13,8.70
2016,02,29,17,14,8.70
2016,02,29,17,15,8.70
2016,02,29,17,16,8.70
2016,02,29,17,17,8.70
2016,02,29,17,18,8.70
2016,02,29,17,19,8.70
2016,02,29,17,20,8.70
2016,02,29,17,21,8.70
2016,02,29,17,22,8.70
2016,02,29,17,23,8.70
2016,02,29,17,24,8.70
2016,02,29,17,25,8.70
2016,02,29,17,26,8.70
2016,02,29,17,27,8.70
2016,02,29,17,28,8.70
2016,02,29,17,29,8.70
2016,02,29,17,30,8.70
2016,02,29,17,31,8.70
2016,02,29,17,32,8.70
2016,02,29,17,33,8.60
2016,02,29,17,34,8.60
2016,02,29,17,35,8.60
2016,02,29,17,36,8.60
2016,02,29,17,37,8.60
2016,02,29,17,38,8.60
2016,02,29,17,39,8.60
2016,02,29,17,40,8.60
2016,02,29,17,41,8.60
2016,02,29,17,42,8.60
2016,02,29,17,43,8.60
2016,02,29,17,44,8.60
2016,02,29,17,45,8.60
2016,02,29,17,46,8.60
2016,02,29,17,47,8.60
2016,02,29,17,48,8.60
2016,02,29,17,49,8.60
2016,02,29,17,50,8.60
2016,02,29,17,51,8.60
2016,02,29,17,52,8.60
2016,02,29,17,53,8.60
2016,02,29,17,54,8.60
2016,02,29,17,55,8.60
2016,02,29,17,56,8.60
2016,02,29,17,57,8.60
2016,02,29,17,58,8.50
2016,02,29,17,59,8.50
2016,02,29,18,00,8.50
2016,02,29,18,01,8.50
2016,02,29,18,02,8.50
2016,02,29,18,03,8.50
2016,02,29,18,04,8.50